| time (UTC) | temp F | wind direction | speed MPH | gust MPH | rain 1hr in | rain 24hr in | rain mn in | humidity % | barometer mb |
| 20260507104526 | 41 | 215 | 0.0 | 2.0 | 0.00 | 0.88 | 0.01 | 97 | 1007.9 |
| 20260507103025 | 41 | 215 | 0.0 | 2.0 | 0.00 | 0.89 | 0.01 | 97 | 1007.8 |
| 20260507101533 | 40 | 215 | 0.0 | 0.0 | 0.00 | 0.89 | 0.01 | 97 | 1007.8 |
| 20260507100030 | 40 | 215 | 0.0 | 2.0 | 0.00 | 0.90 | 0.01 | 96 | 1007.7 |
| 20260507094521 | 40 | 215 | 0.0 | 0.0 | 0.00 | 0.90 | 0.01 | 96 | 1007.5 |
| 20260507091512 | 40 | 215 | 0.0 | 2.0 | 0.00 | 0.90 | 0.01 | 96 | 1007.7 |
| 20260507090019 | 41 | 215 | 0.0 | 2.0 | 0.00 | 0.90 | 0.01 | 96 | 1007.6 |
| 20260507084504 | 41 | 215 | 0.0 | 2.0 | 0.00 | 0.90 | 0.01 | 96 | 1007.7 |
| 20260507083006 | 41 | 197 | 1.0 | 2.0 | 0.00 | 0.90 | 0.01 | 97 | 1008.0 |
| 20260507081503 | 41 | 308 | 0.0 | 2.0 | 0.00 | 0.91 | 0.01 | 96 | 1008.0 |
| 20260507080004 | 41 | 312 | 0.0 | 2.0 | 0.00 | 0.92 | 0.01 | 96 | 1008.0 |
| 20260507074526 | 41 | 312 | 0.0 | 0.0 | 0.00 | 0.92 | 0.01 | 96 | 1007.9 |
| 20260507073011 | 41 | 312 | 0.0 | 0.0 | 0.00 | 0.92 | 0.01 | 96 | 1007.8 |
| 20260507071507 | 41 | 312 | 0.0 | 2.0 | 0.00 | 0.93 | 0.01 | 96 | 1007.7 |
| 20260507064506 | 41 | 312 | 0.0 | 2.0 | 0.01 | 0.97 | 0.01 | 96 | 1007.6 |
| 20260507063004 | 41 | 312 | 0.0 | 2.0 | 0.01 | 0.97 | 0.01 | 96 | 1007.4 |
| 20260507061519 | 41 | 312 | 0.0 | 2.0 | 0.01 | 0.97 | 0.01 | 96 | 1007.6 |
| 20260507060017 | 41 | 312 | 0.0 | 2.0 | 0.00 | 0.96 | 0.00 | 96 | 1007.5 |
| 20260507053009 | 41 | 312 | 0.0 | 2.0 | 0.00 | 0.97 | 0.00 | 96 | 1008.0 |
| 20260507051505 | 41 | 234 | 0.0 | 2.0 | 0.00 | 0.98 | 0.00 | 96 | 1008.2 |
| 20260507044522 | 42 | 352 | 0.0 | 2.0 | 0.00 | 0.98 | 0.00 | 96 | 1008.6 |
| 20260507043015 | 42 | 352 | 0.0 | 2.0 | 0.00 | 1.00 | 0.00 | 96 | 1008.1 |
| 20260507041516 | 42 | 352 | 0.0 | 2.0 | 0.00 | 1.00 | 0.00 | 96 | 1008.3 |
| 20260507040010 | 43 | 352 | 0.0 | 2.0 | 0.00 | 1.05 | 0.00 | 96 | 1008.4 |
| 20260507034507 | 43 | 352 | 0.0 | 2.0 | 0.00 | 1.09 | 1.05 | 96 | 1008.4 |
| 20260507033024 | 43 | 352 | 0.0 | 1.0 | 0.00 | 1.10 | 1.05 | 96 | 1008.6 |
| 20260507031523 | 43 | 352 | 0.0 | 2.0 | 0.00 | 1.15 | 1.05 | 96 | 1008.5 |
| 20260507024519 | 43 | 298 | 0.0 | 2.0 | 0.01 | 1.15 | 1.05 | 96 | 1008.4 |
| 20260507023014 | 44 | 298 | 0.0 | 0.0 | 0.04 | 1.16 | 1.05 | 96 | 1008.7 |
| 20260507021526 | 44 | 298 | 0.0 | 2.0 | 0.05 | 1.16 | 1.05 | 96 | 1008.7 |
| 20260507020025 | 44 | 298 | 0.0 | 2.0 | 0.05 | 1.16 | 1.05 | 96 | 1008.7 |
| 20260507014525 | 44 | 298 | 0.0 | 0.0 | 0.05 | 1.15 | 1.04 | 96 | 1008.8 |
| 20260507011534 | 44 | 298 | 0.0 | 2.0 | 0.05 | 1.11 | 1.01 | 95 | 1008.8 |
| 20260507004518 | 44 | 298 | 0.0 | 2.0 | 0.06 | 1.10 | 1.00 | 95 | 1008.1 |
| 20260507003025 | 44 | 298 | 0.0 | 2.0 | 0.02 | 1.05 | 0.96 | 95 | 1008.0 |
| 20260507001508 | 44 | 298 | 0.0 | 2.0 | 0.02 | 1.05 | 0.96 | 95 | 1007.6 |
| 20260507000008 | 44 | 298 | 0.0 | 2.0 | 0.03 | 1.04 | 0.95 | 95 | 1007.4 |
| 20260506234509 | 45 | 298 | 0.0 | 2.0 | 0.02 | 1.04 | 0.94 | 95 | 1007.0 |
| 20260506233003 | 45 | 298 | 0.0 | 2.0 | 0.02 | 1.04 | 0.94 | 95 | 1007.2 |
| 20260506231503 | 45 | 298 | 0.0 | 2.0 | 0.02 | 1.04 | 0.94 | 95 | 1007.1 |
| 20260506230002 | 45 | 280 | 0.0 | 2.0 | 0.01 | 1.02 | 0.92 | 95 | 1007.0 |
| 20260506224522 | 45 | 318 | 1.0 | 2.0 | 0.01 | 1.02 | 0.92 | 94 | 1007.0 |
| 20260506223006 | 46 | 293 | 0.0 | 2.0 | 0.01 | 1.02 | 0.92 | 95 | 1007.0 |
| 20260506221505 | 46 | 319 | 0.0 | 2.0 | 0.01 | 1.02 | 0.92 | 95 | 1006.7 |
| 20260506220005 | 46 | 46 | 1.0 | 2.0 | 0.01 | 1.01 | 0.91 | 95 | 1006.8 |
| 20260506214503 | 46 | 316 | 0.0 | 2.0 | 0.02 | 1.01 | 0.91 | 95 | 1006.7 |
| 20260506213003 | 46 | 317 | 0.0 | 2.0 | 0.02 | 1.01 | 0.91 | 95 | 1006.5 |
| 20260506211518 | 46 | 317 | 0.0 | 2.0 | 0.02 | 1.01 | 0.91 | 95 | 1006.7 |
| 20260506210015 | 46 | 317 | 0.0 | 2.0 | 0.01 | 1.00 | 0.90 | 94 | 1006.6 |
| 20260506204510 | 46 | 313 | 0.0 | 2.0 | 0.01 | 0.99 | 0.89 | 94 | 1006.7 |
| 20260506203006 | 46 | 338 | 0.0 | 2.0 | 0.03 | 1.01 | 0.89 | 94 | 1006.4 |
| 20260506200004 | 46 | 294 | 0.0 | 3.0 | 0.05 | 1.01 | 0.89 | 94 | 1006.5 |
| 20260506194518 | 46 | 317 | 0.0 | 2.0 | 0.04 | 1.03 | 0.88 | 94 | 1006.6 |
| 20260506193016 | 46 | 267 | 0.0 | 2.0 | 0.02 | 1.01 | 0.86 | 94 | 1006.7 |
| 20260506191517 | 46 | 296 | 0.0 | 3.0 | 0.02 | 1.00 | 0.85 | 94 | 1006.6 |
| 20260506190007 | 46 | 42 | 1.0 | 2.0 | 0.02 | 0.99 | 0.84 | 94 | 1006.6 |
| 20260506184508 | 46 | 299 | 0.0 | 3.0 | 0.05 | 0.99 | 0.84 | 94 | 1006.6 |
| 20260506183006 | 46 | 290 | 0.0 | 4.0 | 0.09 | 0.99 | 0.84 | 94 | 1006.6 |
| 20260506181522 | 46 | 56 | 1.0 | 4.0 | 0.12 | 0.98 | 0.83 | 94 | 1006.7 |
| 20260506180021 | 46 | 50 | 1.0 | 4.0 | 0.14 | 0.97 | 0.82 | 94 | 1007.2 |
| 20260506174518 | 46 | 346 | 2.0 | 8.0 | 0.13 | 0.94 | 0.79 | 94 | 1007.2 |
| 20260506171515 | 46 | 310 | 2.0 | 5.0 | 0.13 | 0.86 | 0.71 | 94 | 1007.3 |
| 20260506170007 | 47 | 296 | 0.0 | 4.0 | 0.15 | 0.83 | 0.68 | 95 | 1007.2 |
| 20260506163038 | 46 | 13 | 1.0 | 4.0 | 0.15 | 0.77 | 0.62 | 94 | 1007.2 |
| 20260506161518 | 46 | 57 | 1.0 | 4.0 | 0.13 | 0.73 | 0.58 | 94 | 1007.4 |
| 20260506154528 | 47 | 11 | 0.0 | 3.0 | 0.10 | 0.66 | 0.51 | 94 | 1007.4 |
| 20260506153009 | 47 | 33 | 2.0 | 5.0 | 0.08 | 0.62 | 0.47 | 94 | 1007.4 |
| 20260506151506 | 47 | 34 | 2.0 | 4.0 | 0.07 | 0.60 | 0.45 | 94 | 1007.6 |
| 20260506150007 | 47 | 25 | 1.0 | 5.0 | 0.06 | 0.58 | 0.43 | 94 | 1007.7 |
| 20260506144505 | 48 | 309 | 0.0 | 4.0 | 0.06 | 0.56 | 0.41 | 95 | 1007.9 |
| 20260506143004 | 48 | 33 | 0.0 | 4.0 | 0.06 | 0.54 | 0.39 | 95 | 1007.9 |
| 20260506141516 | 48 | 352 | 0.0 | 3.0 | 0.07 | 0.52 | 0.38 | 94 | 1007.8 |
| 20260506134511 | 48 | 40 | 0.0 | 2.0 | 0.10 | 0.50 | 0.35 | 94 | 1007.8 |
| 20260506133006 | 48 | 317 | 1.0 | 2.0 | 0.11 | 0.48 | 0.33 | 94 | 1008.2 |
| 20260506130004 | 48 | 148 | 0.0 | 3.0 | 0.09 | 0.44 | 0.29 | 95 | 1008.5 |
| 20260506124518 | 49 | 5 | 0.0 | 2.0 | 0.05 | 0.40 | 0.25 | 95 | 1008.6 |
| 20260506123017 | 49 | 40 | 1.0 | 3.0 | 0.02 | 0.37 | 0.22 | 95 | 1008.6 |
| 20260506121514 | 49 | 41 | 0.0 | 2.0 | 0.01 | 0.36 | 0.21 | 95 | 1008.5 |
| 20260506120012 | 49 | 241 | 1.0 | 4.0 | 0.01 | 0.35 | 0.20 | 95 | 1009.3 |
| 20260506114510 | 49 | 5 | 0.0 | 2.0 | 0.01 | 0.35 | 0.20 | 95 | 1008.5 |
| 20260506113006 | 49 | 352 | 0.0 | 2.0 | 0.02 | 0.35 | 0.20 | 95 | 1008.5 |
| 20260506111529 | 49 | 352 | 0.0 | 2.0 | 0.02 | 0.35 | 0.20 | 95 | 1008.5 |
| 20260506110020 | 49 | 326 | 0.0 | 2.0 | 0.02 | 0.34 | 0.19 | 95 | 1008.4 |